Lapse_Rate
7.1 6.9 7.7 7.1 7.0 7.1 7.1 6.8 6.8 6.7 6.5 5.9 6.0 6.2 6.5 6.5 6.6 6.2 5.9 6.1 6.1 6.1 6.3 6.6 6.8 6.8 6.9 7.1 7.1 7.1 7.0 6.8 6.7 6.5 6.5 6.4 6.1 5.9 5.9 6.5 6.3 6.0 5.8 5.7 5.7 5.6 5.5 5.4 5.4
7.2 7.0 7.3 7.0 7.5 7.2 6.4 7.2 6.7 6.3 5.8 5.8 6.1 6.2 6.2 6.5 6.3 6.1 6.2 6.1 5.6 6.0 6.4 6.7 6.6 6.7 6.9 7.0 7.1 7.0 6.9 6.8 6.7 6.6 6.5 6.5 6.4 6.3 6.3 6.2 6.3 6.3 6.1 5.7 5.6 5.6 5.5 5.3 5.3
7.5 7.7 7.1 6.9 7.6 7.3 6.4 7.1 7.0 6.5 5.9 6.0 6.1 6.1 6.4 6.2 5.9 6.4 5.9 5.9 5.7 6.1 6.5 6.5 6.5 6.6 6.9 7.2 7.2 7.0 6.9 6.9 6.8 6.8 6.7 6.5 6.4 6.3 6.2 6.2 6.2 6.2 5.9 5.7 5.9 5.7 5.6 5.3 5.4
8.0 8.1 7.0 7.1 7.6 7.8 7.7 7.2 7.3 6.9 6.5 6.4 6.1 6.3 5.7 5.6 5.7 5.7 5.6 5.8 5.9 6.3 6.4 6.4 6.6 6.6 6.8 7.1 7.5 7.2 7.0 6.9 6.8 6.7 6.8 6.8 6.4 6.3 6.3 6.2 6.2 6.1 6.0 5.9 5.9 5.8 5.6 5.5 5.5
7.9 8.0 7.3 8.1 7.9 7.9 7.5 7.4 7.5 7.1 6.6 6.2 6.5 5.7 5.4 5.2 5.9 5.5 5.4 5.6 6.1 6.4 6.6 6.5 6.6 6.6 6.7 6.8 7.1 7.2 7.0 6.9 6.9 6.7 6.6 6.7 6.7 6.4 6.4 6.4 6.3 6.2 6.1 6.0 5.8 5.7 5.8 5.5 5.5
7.8 8.3 7.8 8.0 7.8 8.0 7.6 7.5 7.6 7.2 6.8 6.6 6.7 6.3 5.7 5.4 6.2 6.0 5.6 5.7 6.0 6.5 6.5 6.6 6.7 6.7 6.8 6.9 6.9 7.0 7.1 6.9 6.6 6.6 6.5 6.4 6.6 6.7 6.4 6.3 6.3 6.1 6.1 5.9 5.7 5.7 5.7 5.7 5.6
8.0 8.3 8.1 8.1 8.1 8.5 8.0 7.8 7.7 7.5 7.1 7.0 7.0 7.2 6.3 6.0 5.9 5.7 5.7 6.1 6.2 6.5 6.7 6.9 6.9 6.8 6.9 6.9 6.9 6.9 6.9 6.9 6.8 6.4 6.3 6.3 6.3 6.4 6.5 6.4 6.3 6.2 6.0 5.9 5.8 5.7 5.6 5.6 5.6
7.6 7.9 8.2 8.6 8.5 8.6 8.5 7.8 7.8 7.8 7.9 7.7 7.3 7.5 7.1 7.0 5.9 5.7 5.8 5.7 5.7 6.5 6.8 6.8 6.7 6.5 6.6 6.7 6.9 6.9 6.8 6.7 6.6 6.5 6.4 6.3 6.2 6.1 6.3 6.3 6.2 6.0 5.8 5.8 5.9 5.5 5.5 5.4 5.4
7.6 8.2 8.5 8.4 8.5 8.0 8.8 8.5 7.7 8.0 8.6 8.0 7.8 8.1 7.4 6.7 6.3 5.9 5.7 5.9 5.8 6.4 6.6 6.8 6.7 6.6 6.5 6.6 6.8 6.8 6.9 6.8 6.5 6.4 6.4 6.4 6.2 6.1 6.2 6.2 6.2 6.1 6.0 6.0 5.9 5.8 5.6 5.3 5.3
8.0 8.3 8.7 9.0 8.5 7.7 8.1 8.5 7.9 7.6 8.1 8.5 8.7 8.3 7.6 7.3 7.2 6.7 6.5 6.5 6.3 6.4 6.5 6.6 6.7 6.5 6.5 6.6 6.6 6.7 6.8 6.8 6.7 6.3 6.3 6.4 6.2 6.2 6.1 6.3 6.2 6.2 6.1 6.2 6.0 6.1 5.7 5.3 5.1
8.3 8.7 8.7 8.7 8.2 8.1 8.2 8.4 8.7 7.6 7.9 8.2 8.6 8.1 7.9 7.7 7.4 7.4 7.3 7.0 6.9 6.8 6.9 6.9 6.9 6.8 6.4 6.6 6.6 6.6 6.4 6.5 6.5 6.3 6.2 6.1 6.2 6.1 5.9 5.8 5.7 5.7 5.8 6.0 6.1 6.4 6.3 6.0 5.4
8.5 9.0 9.0 9.2 8.4 8.5 8.1 8.7 9.0 8.5 7.8 7.7 7.9 7.8 7.7 7.6 7.5 7.2 7.7 7.3 7.2 7.0 6.9 6.8 6.7 6.9 6.9 6.5 6.4 6.4 6.1 6.1 6.0 6.1 5.8 5.8 5.9 6.1 6.0 5.9 5.4 5.5 5.7 5.9 5.8 5.7 5.9 6.1 5.9
8.6 9.2 9.5 9.2 8.8 8.6 8.5 8.7 8.9 8.6 8.4 8.0 7.7 7.6 7.5 7.6 7.7 7.3 7.3 7.2 7.1 7.1 7.0 6.8 7.0 7.1 6.8 6.6 6.5 6.2 6.1 5.9 5.8 5.7 5.5 5.3 5.4 5.7 5.8 5.9 5.7 5.7 5.4 5.2 5.4 5.4 5.5 5.6 5.8
8.0 8.7 9.3 9.3 9.2 8.7 8.9 8.9 8.5 8.4 8.3 8.4 8.2 7.6 7.6 7.6 7.7 7.7 7.2 7.1 7.3 7.3 7.1 6.8 6.9 7.1 6.9 6.7 6.3 5.9 5.5 5.3 5.4 5.4 5.2 5.2 5.2 5.4 5.6 5.7 5.6 5.5 5.7 5.6 5.4 5.6 5.6 5.5 5.6
8.7 8.9 9.0 9.4 9.1 8.8 8.8 9.1 8.8 8.8 7.9 8.3 8.5 8.1 7.5 7.3 7.3 7.8 7.6 7.2 7.4 7.4 7.2 6.9 6.8 7.1 7.1 6.6 6.3 5.9 5.4 5.4 5.0 5.0 4.9 5.1 5.1 5.1 5.4 5.3 5.4 5.6 5.8 5.8 5.8 5.9 5.9 5.9 5.7
9.0 8.8 9.0 8.9 8.7 8.9 9.1 9.2 8.6 8.3 9.0 8.4 8.5 8.5 7.5 7.2 7.3 7.7 7.7 7.5 7.5 7.5 7.5 7.3 7.0 7.0 6.8 6.6 6.4 6.2 6.2 5.9 5.5 5.2 5.1 5.1 5.1 4.9 5.0 5.1 5.1 5.4 5.4 5.6 5.9 6.0 5.6 5.4 5.7
8.5 8.9 9.2 9.4 9.1 9.1 9.0 9.2 9.0 8.7 9.0 8.1 8.0 7.8 7.4 6.7 7.5 7.5 7.6 7.7 7.6 7.5 7.6 7.6 7.4 7.0 7.0 6.8 6.6 6.3 6.3 6.3 6.0 5.8 5.5 5.1 4.9 4.8 4.8 4.7 4.6 4.9 5.0 5.3 5.9 5.9 5.8 5.6 5.7
8.4 8.9 9.5 9.1 9.3 9.6 9.0 9.1 9.1 9.0 9.3 8.5 7.7 7.9 8.1 8.5 7.3 7.5 7.7 7.7 7.9 7.7 7.6 7.7 7.7 7.4 7.0 7.0 6.8 6.6 6.1 6.4 6.1 5.8 5.6 5.2 5.2 5.1 4.9 4.7 4.6 4.9 5.2 5.3 5.3 5.5 5.7 5.6 5.6
8.4 8.7 9.0 9.2 8.4 9.0 9.2 9.4 9.2 9.0 9.0 8.5 8.1 8.5 8.1 8.4 7.6 7.7 7.6 7.6 7.7 7.7 7.6 7.7 7.7 7.5 7.2 7.2 6.9 6.8 6.4 6.0 6.1 5.8 5.4 5.3 5.4 5.0 4.8 4.7 4.8 5.0 5.1 5.4 5.3 5.5 5.5 5.8 5.5
8.7 8.3 8.7 9.3 9.2 9.0 9.2 9.1 9.1 9.2 8.9 8.8 8.8 8.8 8.1 7.9 7.7 7.9 7.4 7.6 7.7 7.7 7.7 7.7 7.6 7.4 7.3 7.0 7.2 7.0 6.8 6.5 6.1 5.9 5.8 5.6 5.6 5.4 5.2 5.1 5.0 4.9 5.1 5.3 5.0 5.1 5.4 5.2 5.2
9.0 8.5 9.0 9.3 9.3 9.2 9.0 9.0 9.2 9.3 9.0 8.6 8.6 8.7 7.9 7.8 8.0 8.4 8.1 7.8 7.7 7.7 7.6 7.6 7.5 7.5 7.4 7.3 7.2 7.1 7.0 6.8 6.4 6.3 6.2 6.1 5.9 5.6 5.5 5.4 5.2 5.3 5.3 5.3 5.2 5.1 5.0 5.0 5.2
9.2 9.2 9.4 9.2 9.2 9.1 9.3 8.6 8.9 9.0 8.7 8.7 8.8 8.6 8.3 7.8 7.8 8.2 8.4 8.0 7.6 7.8 7.4 7.5 7.7 7.5 7.6 7.2 7.3 7.1 7.0 6.8 6.8 6.5 6.3 6.5 6.4 5.9 5.7 5.6 5.4 5.3 5.3 5.4 5.2 5.1 5.2 5.3 5.4
9.4 9.5 9.3 9.4 9.4 9.1 9.2 8.7 9.0 8.7 8.4 8.8 9.1 8.7 8.4 8.0 8.4 8.3 8.1 7.8 7.2 8.0 7.7 7.5 7.4 7.5 7.3 7.4 7.1 7.0 6.9 6.6 6.5 6.7 6.4 6.7 6.5 6.4 6.2 5.9 5.8 5.7 5.7 5.5 5.4 5.2 5.1 5.4 5.7
9.5 9.5 9.5 9.6 9.4 8.9 9.2 8.9 9.1 8.9 9.1 9.1 9.0 8.4 8.3 8.0 8.5 8.1 7.6 7.2 7.1 8.0 7.9 7.6 7.4 7.3 7.3 7.4 7.0 6.9 6.8 6.4 6.2 6.5 6.6 6.3 6.6 6.2 6.2 5.9 5.9 6.0 5.9 5.9 5.8 5.8 5.9 5.6 5.5
9.4 9.3 9.0 8.5 7.8 7.5 9.2 9.2 9.3 9.1 9.0 9.3 8.9 9.0 8.8 8.4 8.3 8.2 7.3 7.4 7.3 7.6 7.9 7.6 7.7 7.2 7.1 7.2 7.0 7.1 6.7 6.5 6.2 6.0 5.9 5.8 6.0 6.3 6.1 6.0 6.0 5.9 5.8 5.7 5.7 5.6 5.6 5.5 5.5
9.3 9.3 8.8 7.7 6.9 8.4 9.3 9.3 9.1 9.1 9.0 9.0 8.9 8.7 9.0 8.7 8.4 7.5 7.9 8.0 8.0 7.6 7.9 7.6 7.4 7.2 7.2 7.0 7.0 7.0 6.4 6.1 5.9 5.8 5.6 5.2 5.5 6.0 6.3 5.8 5.7 5.9 5.8 5.7 5.6 5.5 5.3 5.4 5.5
9.3 9.2 9.2 9.3 8.3 8.5 9.0 9.1 8.8 8.8 8.9 9.0 8.9 8.7 8.9 8.5 8.2 7.7 8.0 8.2 7.7 7.4 7.7 7.4 7.4 7.4 7.1 6.9 6.9 7.2 6.8 6.2 5.4 5.0 4.9 5.0 5.4 5.9 6.3 5.9 5.6 5.7 5.7 5.6 5.5 5.5 5.6 5.6 5.6
9.3 9.4 9.2 9.2 7.9 7.6 8.3 8.9 9.0 9.0 9.2 9.2 8.9 8.5 8.4 7.5 6.8 8.1 8.3 8.1 7.7 7.2 7.7 7.6 7.5 7.3 7.1 6.9 7.0 7.1 6.6 6.1 5.8 5.4 5.3 5.2 5.4 5.9 6.0 5.8 5.6 5.7 5.6 5.5 5.4 5.5 5.7 5.6 5.6
9.3 9.4 9.5 9.2 9.0 7.4 6.5 8.4 8.8 8.9 9.0 8.7 8.4 8.4 7.9 6.0 7.2 7.4 8.5 8.0 7.6 7.7 7.9 7.8 7.5 7.3 7.0 6.9 7.1 7.1 6.8 6.3 6.1 5.8 5.7 5.6 5.8 6.2 6.0 5.7 5.6 5.7 5.6 5.5 5.5 5.5 5.6 5.6 5.8
9.3 9.4 9.5 9.5 9.1 8.7 9.0 9.0 9.3 8.9 9.0 8.9 8.8 8.6 8.3 6.9 6.3 7.1 8.4 7.9 7.7 7.8 7.8 7.5 7.3 7.2 7.0 7.0 6.9 6.9 6.9 6.4 6.2 6.4 6.7 6.6 6.4 6.2 5.9 5.7 5.6 5.6 5.6 5.6 5.6 5.5 5.6 5.7 5.7
Wind_Speed
17 15 5 2 1 1 3 6 5 5 4 3 7 5 3 4 2 3 5 10 15 10 13 14 16 15 15 14 14 14 14 13 12 13 13 14 14 14 14 12 12 12 11 10 10 11 12 10 11
17 13 3 2 0 4 3 7 13 12 9 9 11 9 7 5 8 13 10 14 13 13 14 13 16 15 14 14 14 13 13 12 10 11 12 12 12 11 12 11 11 11 12 8 9 9 10 8 9
18 12 3 3 1 6 9 12 11 12 12 11 9 7 4 5 12 13 14 16 15 11 13 15 16 15 14 13 13 12 12 11 10 10 10 10 9 9 9 9 9 10 9 10 8 9 7 6 7
7 4 2 2 4 0 14 14 17 15 13 11 10 7 7 12 14 10 18 17 13 12 14 17 17 16 15 14 13 12 11 11 11 11 10 8 6 5 5 6 6 7 8 8 9 10 7 6 5
3 3 3 3 5 2 7 15 17 16 10 14 14 10 5 4 19 22 20 17 17 11 14 16 16 15 14 14 14 14 12 10 10 11 10 9 8 4 3 5 5 6 6 6 7 8 8 6 5
4 2 4 4 5 4 4 14 16 14 14 14 11 7 4 14 21 17 16 14 13 14 14 17 17 16 15 14 13 13 12 11 10 9 8 7 7 7 4 2 5 5 5 5 4 6 6 6 5
4 3 2 4 2 10 7 14 13 16 16 9 10 9 7 12 15 16 15 13 13 13 11 14 15 17 16 15 13 12 11 10 9 7 7 7 7 7 7 5 3 4 5 6 6 5 5 5 5
5 3 5 3 4 4 3 4 15 16 6 16 19 7 8 12 17 13 12 12 12 11 10 12 14 16 15 15 15 14 13 11 10 9 8 8 8 8 8 9 8 7 5 6 6 6 6 6 7
3 4 2 4 3 3 7 8 11 8 17 7 6 12 11 20 17 14 12 7 8 8 8 9 10 13 16 16 14 15 15 14 12 12 11 10 8 8 8 8 9 9 8 7 7 7 8 8 7
4 4 5 9 6 6 9 9 5 7 8 11 14 13 15 20 17 15 12 11 9 10 9 8 8 9 11 12 14 14 12 11 12 10 9 10 9 9 8 7 9 9 8 7 6 5 7 8 6
5 6 8 8 13 16 5 3 2 4 5 13 20 20 16 15 13 15 14 16 16 12 8 9 9 11 10 8 10 10 11 12 11 12 11 10 8 8 9 6 8 9 9 4 4 1 3 5 3
5 9 8 5 13 11 9 4 8 8 9 12 14 17 15 13 14 13 14 14 11 11 11 9 8 9 9 9 8 8 6 9 7 12 13 7 3 3 4 7 7 7 3 6 5 4 2 3 4
4 12 9 14 19 19 10 8 5 6 17 18 15 15 12 10 11 9 12 10 12 12 10 11 9 7 6 5 6 6 5 6 8 9 13 10 4 3 4 6 6 6 7 9 8 7 4 2 2
4 15 19 4 17 19 16 8 5 3 18 19 20 16 14 14 14 7 8 8 14 13 12 10 10 8 7 5 4 3 4 5 7 6 7 8 7 7 4 4 4 4 8 9 8 6 3 3 2
5 7 7 19 9 4 5 6 3 10 15 20 21 16 14 12 12 9 11 10 14 13 13 11 9 6 6 6 3 2 1 3 6 7 8 9 6 8 7 3 3 5 9 7 5 5 3 2 3
8 6 5 6 9 9 4 6 7 7 15 15 15 14 12 10 14 9 9 10 10 10 11 9 7 7 7 6 4 4 4 6 6 8 8 6 6 6 5 3 3 5 7 6 4 2 3 4 1
6 1 4 5 7 6 7 7 6 9 8 5 7 6 8 9 8 8 9 11 11 13 10 8 8 7 6 5 5 5 6 4 6 6 7 8 8 5 5 3 3 6 4 3 3 2 1 3 3
6 3 5 3 9 5 7 10 6 9 10 11 7 7 5 6 15 12 11 10 10 10 11 8 6 7 6 5 4 3 3 1 5 6 3 5 8 8 6 4 4 3 2 4 3 4 3 1 2
4 3 4 5 5 2 7 6 10 8 13 12 12 14 13 11 14 13 13 11 11 10 11 10 9 8 5 3 3 1 1 1 1 2 7 5 6 9 7 4 3 3 4 5 5 2 4 3 2
7 4 7 4 6 3 9 15 8 13 18 13 18 14 14 15 13 13 12 12 13 13 11 10 9 7 4 3 2 2 3 2 1 1 3 5 6 6 6 4 3 4 2 2 5 6 2 2 3
6 8 5 9 4 4 3 7 5 4 11 10 10 14 16 20 15 15 14 13 11 13 13 11 9 8 6 6 5 3 3 2 1 1 2 3 4 5 6 5 2 2 2 2 0 2 4 2 1
5 13 11 16 3 7 7 6 6 4 11 13 12 12 14 7 10 12 13 11 13 13 11 8 8 8 6 7 5 4 3 3 3 3 2 3 6 4 6 7 6 4 2 3 2 2 1 1 3
9 9 13 9 6 6 5 2 6 3 6 11 13 16 13 10 13 16 16 16 12 13 12 8 6 5 6 7 6 4 3 2 2 2 5 4 4 9 8 7 5 4 3 2 2 2 1 2 2
5 4 8 6 5 2 5 5 4 7 19 6 6 16 17 14 14 10 4 6 9 11 11 8 8 6 6 6 5 6 5 3 3 2 2 4 4 3 5 7 4 2 3 3 3 3 4 3 2
7 7 3 4 5 5 3 1 8 5 7 9 14 16 14 18 13 13 9 7 9 10 11 8 7 6 6 6 4 3 1 2 4 3 1 6 4 3 5 3 3 2 2 3 2 2 1 1 1
5 8 6 5 3 6 3 5 3 5 6 6 5 11 15 14 14 16 14 9 12 11 8 9 9 8 7 6 5 6 5 3 3 3 4 3 3 3 5 5 3 4 4 2 2 1 2 3 2
8 2 6 7 1 4 4 6 6 5 5 11 14 11 14 15 17 17 9 10 13 12 10 8 9 7 7 7 8 7 6 5 1 5 6 3 3 1 5 5 4 4 4 4 4 4 4 4 3
9 5 0 3 3 4 5 4 5 3 4 20 15 12 13 26 29 4 7 12 10 12 10 6 8 7 7 8 6 6 7 4 3 4 6 6 3 4 5 5 5 5 4 5 5 4 4 5 4
1 2 4 5 5 5 3 6 6 5 5 12 13 12 19 11 27 22 10 12 9 11 13 7 7 8 8 6 6 8 6 5 6 3 5 5 4 3 6 5 5 5 4 5 5 5 6 6 6
6 7 6 5 7 2 4 5 7 6 7 5 10 16 22 23 25 16 12 12 13 13 12 10 8 8 7 6 7 6 6 4 4 5 5 6 5 5 6 6 6 5 4 5 6 6 5 6 7
Wind_Direction
171 161 158 225 285 263 342 51 110 69 60 317 103 117 107 28 131 172 138 136 132 137 143 143 145 151 149 148 144 141 140 136 132 123 119 118 114 110 112 112 115 118 113 113 113 110 118 124 118
160 147 182 254 321 86 24 89 82 100 114 107 94 109 68 77 88 117 111 139 137 134 131 133 143 151 151 148 150 148 143 140 138 128 125 123 122 124 119 125 120 115 119 120 124 116 119 123 126
162 159 162 181 188 112 100 117 123 133 138 121 103 95 80 107 126 137 134 137 139 127 125 139 141 148 151 149 150 150 147 147 145 140 128 125 128 133 131 122 116 114 121 130 131 119 123 134 137
159 166 258 31 287 214 121 124 124 107 104 96 107 77 106 139 142 131 138 142 135 133 135 141 139 143 148 147 150 153 152 151 145 144 135 131 128 129 139 137 139 132 125 136 140 135 140 147 149
16 73 55 310 320 110 114 129 118 108 84 96 107 105 71 63 115 138 149 144 138 140 142 141 139 139 138 145 151 154 158 158 156 151 148 148 153 153 166 146 141 154 156 142 149 153 149 163 181
42 73 47 354 321 103 72 113 115 108 110 104 96 93 78 125 134 146 141 143 143 143 145 145 145 146 146 148 151 156 162 164 163 162 157 157 156 155 162 149 132 154 156 163 164 159 166 176 199
108 82 183 316 309 95 108 128 127 128 133 130 126 119 136 132 138 139 139 132 137 140 144 149 152 156 156 154 158 161 164 169 170 170 166 164 165 160 157 164 174 169 162 167 179 184 187 192 233
124 83 358 38 28 36 55 56 138 148 106 134 140 154 177 150 144 132 127 135 145 156 160 158 159 161 161 165 169 172 173 178 181 179 181 180 178 178 181 178 184 194 193 173 179 173 198 209 220
129 58 97 331 82 346 101 82 48 81 137 178 206 151 144 142 134 133 134 137 148 161 171 165 169 172 171 173 180 184 186 187 192 197 192 194 189 199 203 199 199 200 200 198 188 178 194 206 224
106 122 220 189 105 75 37 35 44 91 100 103 111 139 141 145 147 147 153 160 174 178 181 179 177 186 182 171 186 186 198 203 200 202 209 195 206 216 218 222 206 210 200 205 200 187 190 212 226
190 172 186 227 125 113 119 271 176 93 131 153 152 162 163 148 157 155 168 173 183 179 179 184 185 187 185 180 185 188 197 203 211 207 214 224 215 237 219 227 187 185 191 174 210 3 36 4 307
244 215 175 139 135 133 184 170 163 158 188 160 160 162 163 159 167 172 173 182 170 173 186 184 185 187 189 175 184 178 194 204 205 210 205 195 188 220 186 172 162 170 129 125 117 128 123 48 335
337 291 300 132 156 168 161 204 189 163 154 154 156 162 172 163 178 187 177 179 169 175 183 192 183 195 185 175 189 186 199 191 197 185 192 172 175 209 159 135 136 121 134 162 165 177 181 152 0
220 272 274 288 160 169 170 188 177 137 142 158 159 173 177 172 182 180 177 165 177 179 182 185 188 189 173 189 175 156 203 205 202 194 192 172 213 193 168 148 135 129 175 204 226 215 210 189 141
243 255 350 132 139 141 149 345 314 157 159 169 172 175 182 188 175 185 179 174 173 184 182 181 190 183 165 188 186 118 211 165 163 185 216 187 213 194 158 147 144 173 193 223 262 270 222 174 188
339 43 93 191 157 187 110 233 228 190 162 179 171 175 182 184 183 187 173 178 171 163 176 172 175 169 163 151 122 103 68 104 129 157 171 147 198 174 152 140 158 185 191 217 234 239 277 258 176
7 326 351 339 171 158 219 262 214 166 170 68 83 74 181 186 191 182 177 177 172 166 168 164 156 157 151 116 105 87 73 112 141 160 168 191 220 189 167 162 189 179 217 234 261 249 206 240 198
244 238 262 236 305 155 169 248 256 184 125 113 178 127 155 207 195 182 179 173 161 161 162 145 150 156 142 114 96 84 62 85 141 153 198 227 217 203 179 199 204 186 247 268 262 249 262 271 283
191 269 314 282 193 75 276 289 201 175 152 153 186 178 184 215 212 178 174 168 158 157 147 156 159 161 141 127 117 88 131 181 300 273 174 197 207 189 199 222 240 217 204 224 235 285 270 288 199
188 227 282 276 278 342 300 282 228 163 180 184 187 187 191 196 209 180 172 166 168 163 160 164 172 170 159 126 136 150 155 196 179 210 246 216 214 221 218 222 235 268 278 179 200 214 246 249 189
207 189 225 238 337 256 5 350 315 148 186 201 227 192 187 193 181 189 180 172 166 165 170 180 170 166 153 129 112 64 64 73 66 239 264 245 206 238 228 228 210 230 146 90 267 196 186 215 268
221 213 207 251 109 246 112 272 277 253 209 222 211 207 184 188 191 189 174 170 179 173 173 173 160 150 152 152 129 149 178 178 203 177 187 124 140 145 150 123 130 105 102 79 51 358 279 180 236
235 174 213 221 220 70 305 101 270 67 248 242 241 207 192 195 192 189 188 176 175 162 166 167 132 139 145 161 152 144 162 237 185 169 144 121 96 107 107 99 92 96 103 86 61 29 51 189 204
218 335 34 44 120 52 243 166 257 187 224 214 173 200 207 196 200 173 152 129 155 154 147 147 140 160 154 139 164 179 179 192 165 191 143 131 123 112 91 97 89 82 55 47 40 23 37 15 353
70 57 341 343 355 221 251 349 237 267 237 199 184 204 207 184 149 137 144 151 149 145 140 137 143 134 133 146 144 175 53 149 78 65 95 122 135 109 103 98 104 79 74 59 86 116 87 325 287
233 146 159 202 202 257 328 272 269 300 325 149 111 155 147 136 145 163 173 142 155 140 131 137 134 137 150 162 110 84 70 66 121 130 106 83 95 144 121 129 130 97 78 62 51 49 44 108 9
254 198 198 125 88 69 267 291 324 342 7 59 119 123 147 154 164 174 153 142 142 143 120 153 140 156 164 121 120 106 106 115 187 119 109 108 102 186 106 121 110 118 77 53 39 61 50 59 18
166 174 47 2 204 250 296 272 237 317 17 87 81 91 64 12 320 263 160 143 135 131 136 152 149 157 130 125 129 128 144 141 82 33 94 108 150 87 96 91 87 60 58 52 54 52 27 51 23
220 223 75 126 143 159 184 267 297 227 261 106 108 97 85 350 268 279 155 134 131 125 142 154 120 138 131 132 129 127 133 167 123 120 129 117 96 119 97 110 95 77 56 47 59 50 38 45 24
173 228 139 129 265 153 153 253 302 304 1 95 110 145 166 171 237 278 153 127 136 137 141 143 140 138 136 132 123 128 127 143 128 126 123 113 101 78 102 107 112 105 83 65 67 59 45 49 37